Weather History for KCSQ - May, 2013

Change the Weather History Date:

Friday, May 24, 2013

  Actual Average Record
Temperature  
Mean Temperature 58 °F -  
Max Temperature 69 °F 74 °F 95 °F (1967)
Min Temperature 46 °F 51 °F 35 °F (1979)
Degree Days  
Heating Degree Days 8    
Growing Degree Days 8 (Base 50)    
Moisture  
Dew Point 46 °F    
Average Humidity 70    
Maximum Humidity 87    
Minimum Humidity 43    
Precipitation  
Precipitation 0.00 in - - ()
Sea Level Pressure  
Sea Level Pressure 30.28 in    
Wind  
Wind Speed 11 mph (ESE)    
Max Wind Speed 21 mph    
Max Gust Speed 28 mph    
Visibility 10 miles    
Events      
Averages and records for this station are not official NWS values.
T = Trace of Precipitation, MM = Missing Value Source: NWS Daily Summary

Daily Weather History Graph

Daily Weather History Graph

Search for Another Location

Airport or City:

Trip Planner

Search our weather history database for the weather conditions in past years. The results will help you decide how hot, cold, wet, or windy it might be!

Date:

Astronomy

May. 24, 2013 Rise Set
Actual Time 5:51 AM CDT 8:37 PM CDT
Civil Twilight 5:19 AM CDT 9:09 PM CDT
Nautical Twilight 4:39 AM CDT 9:50 PM CDT
Astronomical Twilight 3:53 AM CDT 10:36 PM CDT
Moon 8:19 PM CDT (5/24) 5:25 AM CDT (5/24)
Length of Visible Light 15h 49m
Length of Day
14h 45m
Full, 100% of the Moon is Illuminated
May 24
Full
May 24
Full
May 31
Last Quarter
Jun 8
New
Jun 16
First Quarter

Hourly Weather History & Observations

Time (CDT) Temp. Windchill Dew Point Humidity Pressure Visibility Wind Dir Wind Speed Gust Speed Precip Events Conditions
12:15 AM 51.8 °F - 44.6 °F 76% 30.27 in 10.0 mi ENE 8.1 mph - N/A   Clear
12:35 AM 51.8 °F - 44.6 °F 76% 30.28 in 10.0 mi ENE 5.8 mph - N/A   Clear
12:55 AM 50.0 °F - 44.6 °F 82% 30.28 in 10.0 mi ENE 8.1 mph - N/A   Clear
1:15 AM 50.0 °F - 44.6 °F 82% 30.28 in 10.0 mi ENE 8.1 mph - N/A   Clear
1:35 AM 50.0 °F - 44.6 °F 82% 30.28 in 10.0 mi ENE 6.9 mph - N/A   Clear
1:55 AM 50.0 °F - 42.8 °F 76% 30.28 in 10.0 mi ENE 8.1 mph - N/A   Clear
2:15 AM 50.0 °F - 42.8 °F 76% 30.29 in 10.0 mi East 5.8 mph - N/A   Clear
2:35 AM 48.2 °F - 42.8 °F 82% 30.28 in 10.0 mi ENE 9.2 mph - N/A   Clear
2:55 AM 48.2 °F - 42.8 °F 82% 30.28 in 10.0 mi ENE 8.1 mph - N/A   Clear
3:15 AM 48.2 °F - 42.8 °F 82% 30.29 in 10.0 mi East 9.2 mph - N/A   Clear
3:35 AM 48.2 °F - 42.8 °F 82% 30.30 in 10.0 mi East 8.1 mph - N/A   Clear
3:55 AM 48.2 °F - 42.8 °F 82% 30.29 in 10.0 mi East 9.2 mph - N/A   Clear
4:15 AM 48.2 °F - 42.8 °F 82% 30.30 in 10.0 mi East 9.2 mph - N/A   Clear
4:35 AM 48.2 °F - 42.8 °F 82% 30.30 in 10.0 mi East 9.2 mph - N/A   Clear
4:55 AM 46.4 °F 41.9 °F 42.8 °F 87% 30.30 in 10.0 mi East 9.2 mph - N/A   Clear
5:15 AM 46.4 °F 41.5 °F 42.8 °F 87% 30.30 in 10.0 mi East 10.4 mph - N/A   Clear
5:35 AM 46.4 °F 42.4 °F 42.8 °F 87% 30.31 in 10.0 mi East 8.1 mph - N/A   Clear
5:55 AM 46.4 °F 41.5 °F 42.8 °F 87% 30.31 in 10.0 mi East 10.4 mph - N/A   Clear
6:15 AM 46.4 °F 42.4 °F 42.8 °F 87% 30.32 in 10.0 mi East 8.1 mph - N/A   Clear
6:35 AM 46.4 °F 42.9 °F 42.8 °F 87% 30.33 in 10.0 mi ESE 6.9 mph - N/A   Clear
6:55 AM 48.2 °F - 44.6 °F 87% 30.33 in 10.0 mi ESE 6.9 mph - N/A   Clear
7:15 AM 50.0 °F - 44.6 °F 82% 30.33 in 10.0 mi ESE 10.4 mph - N/A   Clear
7:35 AM 51.8 °F - 44.6 °F 76% 30.33 in 10.0 mi ESE 13.8 mph - N/A   Clear
7:55 AM 53.6 °F - 46.4 °F 77% 30.33 in 10.0 mi SE 11.5 mph - N/A   Clear
8:15 AM 55.4 °F - 48.2 °F 77% 30.34 in 10.0 mi SE 12.7 mph - N/A   Clear
8:35 AM 57.2 °F - 50.0 °F 77% 30.35 in 10.0 mi SE 12.7 mph - N/A   Clear
8:55 AM 59.0 °F - 51.8 °F 77% 30.35 in 10.0 mi SSE 12.7 mph - N/A   Clear
9:15 AM 60.8 °F - 51.8 °F 72% 30.34 in 10.0 mi SSE 12.7 mph - N/A   Clear
9:35 AM 62.6 °F - 51.8 °F 68% 30.33 in 10.0 mi SE 16.1 mph - N/A   Clear
9:55 AM 62.6 °F - 50.0 °F 63% 30.33 in 10.0 mi SSE 16.1 mph 21.9 mph N/A   Clear
10:15 AM 64.4 °F - 50.0 °F 59% 30.33 in 10.0 mi SSE 17.3 mph - N/A   Clear
10:35 AM 64.4 °F - 48.2 °F 56% 30.32 in 10.0 mi SSE 18.4 mph 24.2 mph N/A   Partly Cloudy
10:55 AM 64.4 °F - 48.2 °F 56% 30.32 in 10.0 mi SSE 17.3 mph 23.0 mph N/A   Scattered Clouds
11:15 AM 64.4 °F - 50.0 °F 59% 30.31 in 10.0 mi SE 17.3 mph 24.2 mph N/A   Partly Cloudy
11:35 AM 64.4 °F - 50.0 °F 59% 30.31 in 10.0 mi South 18.4 mph 24.2 mph N/A   Scattered Clouds
11:55 AM 66.2 °F - 50.0 °F 56% 30.31 in 10.0 mi SSE 18.4 mph 25.3 mph N/A   Mostly Cloudy
12:15 PM 66.2 °F - 50.0 °F 56% 30.30 in 10.0 mi SSE 19.6 mph - N/A   Mostly Cloudy
12:35 PM 66.2 °F - 50.0 °F 56% 30.31 in 10.0 mi SSE 20.7 mph - N/A   Mostly Cloudy
12:55 PM 66.2 °F - 50.0 °F 56% 30.30 in 10.0 mi SE 18.4 mph 25.3 mph N/A   Scattered Clouds
2:35 PM 68.0 °F - 48.2 °F 49% 30.26 in 10.0 mi South 19.6 mph 27.6 mph N/A   Clear
4:15 PM 69.8 °F - 46.4 °F 43% 30.24 in 10.0 mi SSE 16.1 mph 26.5 mph N/A   Clear
7:35 PM 64.4 °F - 46.4 °F 52% 30.16 in 10.0 mi SE 13.8 mph - N/A   Mostly Cloudy
8:15 PM 64.4 °F - 46.4 °F 52% 30.14 in 10.0 mi SE 17.3 mph - N/A   Scattered Clouds
8:55 PM 62.6 °F - 46.4 °F 55% 30.13 in 10.0 mi SE 16.1 mph - N/A   Clear
9:15 PM 62.6 °F - 46.4 °F 55% 30.15 in 10.0 mi SE 15.0 mph - N/A   Clear
9:35 PM 62.6 °F - 46.4 °F 55% 30.16 in 10.0 mi SE 17.3 mph - N/A   Scattered Clouds
9:55 PM 60.8 °F - 46.4 °F 59% 30.19 in 10.0 mi ESE 12.7 mph - N/A   Mostly Cloudy
10:15 PM 60.8 °F - 46.4 °F 59% 30.19 in 10.0 mi ESE 13.8 mph - N/A   Partly Cloudy
10:35 PM 60.8 °F - 46.4 °F 59% 30.19 in 10.0 mi ESE 15.0 mph - N/A   Clear
10:55 PM 60.8 °F - 46.4 °F 59% 30.19 in 10.0 mi ESE 16.1 mph 21.9 mph N/A   Partly Cloudy
11:15 PM 59.0 °F - 44.6 °F 59% 30.21 in 10.0 mi SE 11.5 mph - N/A   Clear
11:35 PM 59.0 °F - 44.6 °F 59% 30.22 in 10.0 mi SE 6.9 mph - N/A   Mostly Cloudy
11:55 PM 59.0 °F - 46.4 °F 63% 30.22 in 10.0 mi ESE 8.1 mph - N/A   Overcast